Simultaneous Nadir Overpasses (SNOs) Predictions

Prediction of SNOs between LANDSAT-8 and METOP-A Satellite Orbit:

Table of predicted SNOs for the next 14.0 days since TLE Epoch: 3/15/2019
Index Date (LANDSAT-8) Time (LANDSAT-8) Lat,Lon (LANDSAT-8) SZA (LANDSAT-8 ) Date (METOP-A) Time (METOP-A) Lat,Lon (METOP-A) SZA (METOP-A ) Distance(km) Time Diff (sec)
1 03/18/2019 17:30:14 -81.44, 142.59 95.42 03/18/2019 17:29:29 -81.45, 142.66 95.42 1.40 45
2 03/18/2019 18:19:40 81.45, -49.67 84.59 03/18/2019 18:20:09 81.45, -49.65 84.61 0.77 29
3 03/21/2019 13:04:28 -81.45,-150.87 96.49 03/21/2019 13:03:43 -81.45,-150.93 96.51 1.02 45
4 03/21/2019 13:53:54 81.45, 16.83 83.51 03/21/2019 13:54:23 81.45, 16.72 83.51 1.95 29
5 03/24/2019 08:38:41 -81.45, -84.34 97.56 03/24/2019 08:37:56 -81.45, -84.53 97.60 3.18 45
6 03/24/2019 09:28:07 81.45, 83.35 82.44 03/24/2019 09:28:35 81.45, 83.47 82.46 2.10 28
7 03/27/2019 04:12:55 -81.45, -17.81 98.63 03/27/2019 04:12:09 -81.45, -17.75 98.64 1.02 46




NCC Satellite Simultaneous Nadir Overpasses (SNOs) Prediction Service
